QPF
0.07 0.04 0.03 0.08 0.09 0.04 0.07 0.07 0.05 0.02 0.01 0.03 0.00 0.01 0.01 0.00 0.00 0.00 0.00 0.00 0.00 0.00 0.00 0.00 0.00 0.00 0.00 0.00 0.00 0.00 0.00 0.02 0.07 0.00 0.00 0.00 0.00 0.00 0.00 0.00 0.00 0.00
0.07 0.02 0.02 0.03 0.03 0.05 0.12 0.03 0.01 0.06 0.00 0.03 0.01 0.03 0.00 0.01 0.00 0.00 0.00 0.00 0.00 0.00 0.00 0.01 0.00 0.00 0.00 0.00 0.00 0.00 0.00 0.00 0.00 0.01 0.00 0.00 0.00 0.01 0.00 0.00 0.00 0.00
0.02 0.05 0.07 0.05 0.05 0.15 0.17 0.11 0.05 0.09 0.00 0.02 0.02 0.02 0.01 0.00 0.01 0.00 0.01 0.00 0.00 0.00 0.00 0.00 0.00 0.00 0.00 0.00 0.01 0.00 0.00 0.00 0.01 0.00 0.02 0.01 0.00 0.01 0.01 0.01 0.01 0.01
0.01 0.03 0.03 0.03 0.02 0.04 0.03 0.04 0.15 0.01 0.01 0.04 0.02 0.01 0.00 0.06 0.01 0.02 0.00 0.00 0.00 0.00 0.00 0.00 0.00 0.00 0.00 0.00 0.01 0.00 0.00 0.01 0.01 0.00 0.02 0.04 0.01 0.00 0.01 0.01 0.00 0.02
0.00 0.01 0.02 0.02 0.01 0.02 0.00 0.03 0.02 0.02 0.04 0.06 0.00 0.01 0.00 0.05 0.01 0.00 0.01 0.01 0.00 0.00 0.00 0.00 0.00 0.00 0.00 0.00 0.01 0.00 0.00 0.01 0.01 0.00 0.01 0.04 0.01 0.00 0.00 0.00 0.02 0.00
0.00 0.00 0.00 0.00 0.00 0.01 0.04 0.02 0.01 0.01 0.02 0.01 0.02 0.02 0.00 0.00 0.02 0.03 0.01 0.00 0.00 0.00 0.03 0.03 0.04 0.00 0.00 0.00 0.00 0.00 0.00 0.00 0.00 0.00 0.00 0.00 0.01 0.00 0.00 0.00 0.00 0.00
0.00 0.00 0.00 0.00 0.00 0.01 0.01 0.01 0.00 0.00 0.01 0.01 0.00 0.01 0.01 0.01 0.00 0.01 0.00 0.02 0.00 0.00 0.01 0.00 0.01 0.02 0.00 0.01 0.01 0.00 0.00 0.00 0.00 0.00 0.00 0.00 0.00 0.00 0.00 0.01 0.00 0.00
0.00 0.00 0.00 0.00 0.00 0.00 0.00 0.01 0.01 0.00 0.03 0.01 0.01 0.01 0.00 0.00 0.02 0.00 0.02 0.00 0.01 0.00 0.00 0.01 0.07 0.00 0.00 0.00 0.01 0.01 0.01 0.00 0.00 0.00 0.00 0.00 0.00 0.00 0.00 0.00 0.00 0.00
0.00 0.00 0.01 0.00 0.00 0.00 0.00 0.00 0.01 0.00 0.00 0.01 0.01 0.03 0.01 0.01 0.01 0.02 0.00 0.01 0.00 0.01 0.00 0.01 0.00 0.01 0.00 0.01 0.02 0.04 0.01 0.00 0.02 0.00 0.00 0.00 0.00 0.00 0.00 0.00 0.00 0.00
0.00 0.00 0.00 0.00 0.00 0.00 0.00 0.00 0.00 0.00 0.00 0.00 0.00 0.00 0.01 0.02 0.00 0.05 0.01 0.00 0.00 0.01 0.00 0.00 0.01 0.01 0.01 0.00 0.01 0.01 0.01 0.00 0.01 0.01 0.00 0.02 0.01 0.00 0.00 0.00 0.00 0.00
0.00 0.00 0.00 0.00 0.00 0.00 0.00 0.00 0.00 0.00 0.00 0.00 0.00 0.00 0.01 0.04 0.00 0.01 0.02 0.01 0.00 0.01 0.02 0.00 0.01 0.00 0.00 0.01 0.00 0.01 0.00 0.07 0.02 0.00 0.01 0.02 0.01 0.00 0.00 0.00 0.00 0.00
0.00 0.00 0.00 0.00 0.00 0.00 0.00 0.00 0.00 0.00 0.00 0.00 0.00 0.00 0.01 0.00 0.00 0.02 0.03 0.03 0.00 0.00 0.02 0.01 0.00 0.00 0.00 0.01 0.00 0.01 0.02 0.01 0.01 0.00 0.01 0.01 0.00 0.00 0.00 0.01 0.00 0.00
0.00 0.00 0.00 0.00 0.00 0.00 0.00 0.00 0.00 0.00 0.00 0.00 0.00 0.00 0.00 0.00 0.00 0.01 0.00 0.01 0.01 0.01 0.01 0.01 0.00 0.00 0.01 0.01 0.00 0.00 0.01 0.02 0.00 0.01 0.01 0.01 0.00 0.00 0.00 0.00 0.00 0.00
0.01 0.00 0.00 0.00 0.00 0.00 0.00 0.00 0.00 0.00 0.00 0.00 0.00 0.00 0.00 0.00 0.00 0.00 0.00 0.00 0.02 0.01 0.02 0.01 0.00 0.00 0.00 0.00 0.01 0.01 0.02 0.01 0.00 0.00 0.01 0.00 0.00 0.01 0.00 0.00 0.02 0.01
0.06 0.08 0.17 0.03 0.00 0.00 0.00 0.00 0.00 0.00 0.00 0.00 0.00 0.01 0.00 0.00 0.00 0.00 0.00 0.00 0.01 0.02 0.02 0.03 0.02 0.02 0.01 0.01 0.04 0.01 0.02 0.01 0.01 0.00 0.00 0.00 0.01 0.01 0.02 0.02 0.00 0.01
0.06 0.02 0.11 0.02 0.02 0.00 0.00 0.00 0.00 0.00 0.00 0.00 0.00 0.00 0.00 0.00 0.00 0.00 0.00 0.00 0.00 0.00 0.01 0.02 0.03 0.04 0.00 0.00 0.00 0.00 0.01 0.01 0.02 0.01 0.00 0.00 0.00 0.00 0.00 0.03 0.02 0.00
0.14 0.15 0.08 0.18 0.12 0.12 0.11 0.01 0.01 0.00 0.01 0.01 0.00 0.00 0.00 0.00 0.00 0.00 0.00 0.00 0.00 0.02 0.02 0.06 0.05 0.06 0.02 0.00 0.00 0.00 0.02 0.02 0.01 0.00 0.01 0.00 0.02 0.00 0.00 0.00 0.00 0.01
0.00 0.23 0.28 0.17 0.16 0.27 0.39 0.27 0.15 0.13 0.17 0.04 0.01 0.04 0.03 0.01 0.00 0.00 0.00 0.00 0.00 0.00 0.02 0.06 0.04 0.02 0.00 0.00 0.00 0.00 0.00 0.00 0.02 0.03 0.03 0.02 0.02 0.02 0.01 0.00 0.00 0.01
0.02 0.02 0.03 0.25 0.29 0.25 0.88 0.73 0.45 0.32 0.34 0.30 0.18 0.20 0.25 0.04 0.03 0.01 0.00 0.00 0.00 0.01 0.02 0.03 0.02 0.00 0.00 0.00 0.00 0.00 0.00 0.00 0.00 0.02 0.02 0.00 0.00 0.01 0.01 0.00 0.01 0.00
0.03 0.03 0.04 0.09 0.13 0.18 0.21 0.20 0.49 0.10 0.09 0.19 0.04 0.04 0.06 0.09 0.11 0.03 0.01 0.02 0.00 0.05 0.01 0.01 0.00 0.00 0.00 0.00 0.00 0.00 0.00 0.00 0.00 0.00 0.00 0.00 0.00 0.01 0.02 0.03 0.03 0.03
0.03 0.02 0.03 0.05 0.06 0.07 0.08 0.14 0.12 0.07 0.05 0.17 0.29 0.15 0.01 0.03 0.04 0.02 0.04 0.03 0.03 0.03 0.05 0.02 0.00 0.00 0.00 0.00 0.00 0.00 0.00 0.00 0.00 0.00 0.00 0.00 0.00 0.01 0.01 0.09 0.26 0.25
0.02 0.02 0.02 0.04 0.19 0.08 0.07 0.11 0.11 0.12 0.11 0.06 0.04 0.01 0.16 0.04 0.12 0.15 0.05 0.02 0.03 0.03 0.01 0.00 0.00 0.00 0.00 0.00 0.00 0.00 0.00 0.00 0.00 0.00 0.00 0.00 0.00 0.05 0.03 0.05 0.12 0.14
0.02 0.01 0.02 0.07 0.08 0.16 0.14 0.13 0.25 0.27 0.17 0.06 0.03 0.02 0.06 0.26 0.08 0.06 0.02 0.04 0.03 0.05 0.04 0.00 0.00 0.00 0.00 0.00 0.00 0.00 0.00 0.00 0.00 0.00 0.00 0.00 0.01 0.00 0.14 0.29 0.06 0.12
0.01 0.02 0.01 0.03 0.02 0.10 0.13 0.10 0.09 0.11 0.21 0.30 0.15 0.12 0.12 0.25 0.21 0.03 0.01 0.03 0.03 0.02 0.02 0.01 0.01 0.02 0.01 0.00 0.00 0.00 0.00 0.00 0.00 0.00 0.04 0.04 0.05 0.11 0.40 0.27 0.10 0.19
0.00 0.00 0.01 0.05 0.07 0.02 0.13 0.09 0.15 0.10 0.14 0.18 0.33 0.10 0.14 0.18 0.21 0.20 0.17 0.09 0.09 0.08 0.06 0.03 0.01 0.01 0.01 0.00 0.00 0.00 0.00 0.00 0.02 0.03 0.06 0.00 0.03 0.02 0.12 0.04 0.05 0.01
0.00 0.00 0.00 0.01 0.12 0.02 0.01 0.09 0.07 0.16 0.41 0.40 0.23 0.26 0.15 0.10 0.11 0.13 0.25 0.29 0.33 0.15 0.15 0.11 0.07 0.04 0.03 0.01 0.00 0.00 0.00 0.00 0.03 0.02 0.05 0.01 0.00 0.00 0.00 0.00 0.00 0.00
MSLP
1017.80 1017.96 1018.32 1018.60 1018.64 1018.72 1018.88 1018.96 1018.88 1018.84 1018.88 1018.76 1018.88 1018.76 1018.60 1018.36 1018.16 1018.24 1018.24 1018.40 1018.64 1018.80 1018.84 1018.92 1018.96 1019.08 1019.08 1019.16 1019.16 1019.32 1019.52 1019.60 1019.56 1019.60 1019.48 1019.48 1019.56 1019.64 1019.68 1019.68 1019.56 1019.44
1017.60 1017.68 1017.96 1018.28 1018.56 1018.68 1018.80 1018.64 1018.60 1018.72 1018.80 1018.68 1018.64 1018.60 1018.28 1018.24 1018.08 1018.16 1018.20 1018.36 1018.48 1018.64 1018.60 1018.76 1018.88 1018.96 1019.00 1019.08 1019.20 1019.40 1019.52 1019.48 1019.64 1019.24 1019.60 1019.56 1019.52 1019.56 1019.60 1019.52 1019.52 1019.24
1017.36 1017.64 1017.76 1018.20 1018.52 1018.60 1018.40 1018.40 1018.44 1018.44 1018.64 1018.48 1018.36 1018.36 1018.36 1018.08 1018.08 1018.04 1018.08 1018.20 1018.44 1018.40 1018.52 1018.60 1018.76 1018.84 1018.92 1019.04 1019.16 1019.32 1019.48 1019.56 1019.72 1019.36 1019.56 1019.80 1019.52 1019.52 1019.44 1019.36 1019.40 1019.52
1017.20 1017.36 1017.60 1017.84 1017.96 1018.24 1018.24 1018.48 1018.68 1018.60 1018.28 1018.44 1018.40 1018.12 1018.00 1018.00 1018.00 1018.12 1018.12 1018.16 1018.32 1018.40 1018.40 1018.52 1018.64 1018.68 1018.80 1018.92 1019.16 1019.36 1019.24 1019.36 1019.28 1019.24 1019.64 1019.72 1019.56 1019.44 1019.44 1019.36 1019.28 1019.32
1016.64 1017.04 1017.56 1017.72 1017.60 1017.84 1017.88 1018.44 1018.36 1018.24 1018.08 1018.08 1018.00 1017.92 1018.08 1018.08 1018.16 1018.08 1018.16 1018.20 1018.28 1018.40 1018.48 1018.56 1018.56 1018.64 1018.68 1018.84 1019.00 1019.24 1019.12 1019.32 1019.16 1019.20 1019.60 1019.80 1019.56 1019.40 1019.28 1019.20 1019.40 1019.56
1016.20 1016.36 1016.56 1016.88 1017.20 1017.44 1017.68 1017.84 1017.92 1017.84 1017.88 1018.04 1017.96 1017.72 1017.84 1017.88 1018.08 1018.08 1018.12 1018.24 1018.24 1018.28 1018.44 1018.48 1018.56 1018.56 1018.60 1018.76 1018.92 1019.08 1019.08 1019.20 1019.08 1019.24 1019.52 1019.64 1019.48 1019.24 1019.08 1019.08 1019.24 1019.56
1016.12 1016.24 1016.40 1016.44 1016.76 1017.12 1017.40 1017.44 1017.48 1017.52 1017.48 1017.52 1017.52 1017.64 1017.56 1017.76 1017.96 1017.92 1017.92 1018.04 1018.08 1018.16 1018.24 1018.44 1018.60 1018.60 1018.60 1018.72 1018.92 1019.12 1019.08 1019.16 1019.20 1019.32 1019.56 1019.56 1019.48 1019.48 1019.08 1019.20 1019.36 1019.56
1015.72 1015.84 1016.08 1016.20 1016.40 1016.64 1017.12 1017.28 1017.24 1017.32 1017.20 1017.24 1017.52 1017.40 1017.32 1017.56 1017.68 1017.64 1017.72 1017.88 1017.96 1018.04 1018.12 1018.36 1018.44 1018.56 1018.56 1018.64 1018.96 1019.12 1019.16 1019.00 1019.20 1019.36 1019.56 1019.60 1019.52 1019.60 1019.40 1019.20 1019.24 1019.56
1015.48 1015.68 1015.84 1016.08 1016.28 1016.28 1016.48 1016.56 1016.76 1016.88 1016.84 1017.24 1017.28 1017.20 1017.12 1017.32 1017.48 1017.48 1017.68 1017.72 1018.00 1018.04 1018.16 1018.28 1018.40 1018.48 1018.40 1018.52 1018.84 1019.04 1019.16 1019.00 1018.80 1019.16 1019.40 1019.60 1019.60 1019.60 1019.44 1019.20 1019.36 1019.44
1015.36 1015.44 1015.72 1015.96 1016.16 1016.04 1016.12 1016.04 1016.08 1016.36 1016.40 1016.64 1016.88 1017.00 1017.20 1017.24 1017.24 1017.32 1017.60 1017.72 1017.84 1017.96 1018.08 1018.20 1018.32 1018.40 1018.32 1018.44 1018.72 1018.88 1019.04 1019.04 1018.88 1019.04 1019.08 1019.12 1019.24 1019.20 1019.16 1019.20 1019.28 1019.40
1015.16 1015.24 1015.56 1015.84 1016.00 1015.88 1015.88 1015.80 1015.84 1015.92 1016.08 1016.36 1016.48 1016.96 1017.12 1017.20 1017.20 1017.24 1017.56 1017.64 1017.84 1017.92 1018.04 1018.08 1018.24 1018.24 1018.28 1018.32 1018.36 1018.44 1018.68 1018.72 1018.72 1018.84 1018.88 1018.88 1018.88 1018.96 1018.88 1019.00 1019.04 1019.16
1015.08 1015.12 1015.28 1015.44 1015.48 1015.48 1015.56 1015.56 1015.64 1015.76 1015.80 1015.92 1016.12 1016.40 1016.80 1016.96 1017.08 1017.16 1017.40 1017.68 1017.68 1017.72 1017.84 1017.96 1017.88 1017.92 1018.08 1018.12 1018.08 1018.08 1018.32 1018.44 1018.52 1018.60 1018.60 1018.64 1018.60 1018.60 1018.64 1018.64 1018.80 1018.88
1015.40 1015.36 1015.28 1015.24 1015.36 1015.40 1015.32 1015.40 1015.40 1015.48 1015.64 1015.88 1015.80 1016.12 1016.36 1016.76 1017.04 1017.20 1017.20 1017.40 1017.48 1017.52 1017.72 1017.80 1017.84 1017.80 1017.88 1017.96 1017.96 1017.92 1018.04 1018.28 1018.32 1018.36 1018.40 1018.44 1018.36 1018.36 1018.24 1018.28 1018.36 1018.44
1015.48 1015.44 1015.48 1015.48 1015.40 1015.36 1015.44 1015.48 1015.40 1015.36 1015.40 1015.44 1015.60 1015.96 1016.24 1016.32 1016.60 1017.12 1017.08 1017.04 1017.24 1017.36 1017.40 1017.56 1017.76 1017.88 1017.88 1017.88 1017.92 1017.92 1017.96 1018.12 1018.16 1018.28 1018.36 1018.28 1018.24 1018.12 1017.96 1017.96 1018.00 1018.08
1015.80 1016.08 1016.56 1016.12 1015.60 1015.68 1015.76 1015.80 1015.72 1015.64 1015.64 1015.68 1015.64 1016.08 1016.00 1016.00 1016.08 1016.20 1016.72 1017.44 1017.04 1017.20 1017.32 1017.48 1017.88 1017.92 1017.84 1018.00 1018.00 1018.00 1017.92 1018.04 1018.00 1018.12 1018.16 1018.16 1018.12 1017.96 1017.92 1018.00 1017.92 1017.92
1016.08 1016.52 1016.48 1016.40 1016.40 1016.52 1016.64 1016.52 1016.28 1016.16 1016.04 1016.12 1016.00 1015.96 1016.08 1015.96 1016.08 1016.20 1016.24 1016.68 1017.24 1017.32 1017.32 1017.40 1017.68 1017.88 1017.68 1017.60 1017.64 1017.84 1017.96 1017.92 1017.88 1017.96 1018.04 1018.08 1018.12 1018.20 1018.24 1018.12 1018.04 1017.80
1016.08 1016.40 1016.60 1016.80 1017.00 1016.84 1016.44 1016.80 1017.28 1017.52 1017.48 1017.40 1016.84 1016.48 1016.44 1016.36 1016.36 1016.40 1016.28 1016.16 1016.52 1017.36 1017.60 1017.64 1018.00 1017.80 1017.84 1017.76 1017.68 1017.64 1017.72 1017.80 1018.00 1018.04 1018.04 1018.04 1018.24 1018.28 1018.48 1018.20 1017.92 1017.80
1016.28 1016.36 1016.56 1016.76 1016.96 1017.28 1017.40 1017.24 1017.04 1017.00 1017.48 1018.16 1018.48 1017.96 1017.28 1016.60 1016.52 1016.48 1016.52 1016.44 1016.36 1016.40 1016.84 1017.64 1018.16 1018.24 1018.16 1018.00 1017.92 1017.64 1017.56 1017.64 1017.72 1018.00 1018.04 1018.20 1018.32 1018.24 1018.12 1018.16 1018.20 1017.96
1016.36 1016.48 1016.68 1016.84 1017.08 1017.24 1017.16 1017.24 1017.36 1017.52 1017.64 1017.64 1017.80 1018.48 1018.84 1018.12 1017.40 1017.32 1017.48 1017.20 1016.92 1017.28 1017.80 1017.68 1018.08 1018.52 1018.44 1018.04 1017.88 1018.04 1017.80 1017.44 1017.48 1017.68 1018.00 1018.24 1018.32 1018.32 1018.08 1018.16 1018.28 1018.40
1016.48 1016.64 1016.88 1017.04 1017.12 1017.20 1017.20 1017.32 1017.52 1017.68 1017.72 1017.68 1017.72 1017.80 1018.16 1018.32 1017.96 1017.92 1017.76 1017.76 1017.96 1018.40 1018.32 1018.32 1018.36 1018.60 1018.48 1018.24 1018.16 1018.04 1018.04 1017.84 1017.44 1017.48 1017.60 1017.72 1017.96 1017.92 1018.20 1018.56 1019.32 1019.76
1016.72 1016.84 1017.04 1017.08 1017.12 1017.16 1017.16 1017.28 1017.36 1017.60 1017.60 1017.60 1017.68 1018.00 1018.20 1018.32 1018.28 1018.24 1018.20 1018.16 1018.12 1018.12 1018.20 1018.28 1018.72 1018.96 1018.60 1018.28 1018.08 1018.00 1017.92 1017.80 1017.68 1017.56 1017.44 1017.52 1017.56 1018.24 1019.04 1019.28 1019.40 1019.24
1016.88 1016.96 1017.04 1017.12 1017.12 1017.16 1017.32 1017.36 1017.44 1017.48 1017.68 1017.68 1017.68 1017.80 1017.88 1018.08 1018.52 1018.60 1018.48 1018.40 1018.04 1018.04 1018.16 1018.68 1019.16 1019.00 1018.72 1018.64 1018.56 1018.20 1017.92 1017.84 1017.76 1017.80 1017.84 1017.80 1018.24 1018.88 1018.68 1018.80 1018.76 1018.84
1017.08 1017.08 1017.08 1017.28 1017.44 1017.56 1017.64 1017.60 1017.60 1017.52 1017.60 1017.60 1017.84 1017.84 1018.04 1018.32 1018.48 1018.76 1018.72 1018.60 1018.48 1018.36 1018.56 1018.92 1019.04 1019.12 1018.96 1018.84 1018.68 1018.68 1018.24 1017.88 1017.84 1017.76 1017.88 1018.36 1018.88 1018.92 1019.16 1019.16 1019.24 1019.32
1017.24 1017.32 1017.40 1017.36 1017.48 1017.72 1017.76 1017.68 1017.56 1017.52 1017.64 1017.52 1017.92 1018.08 1018.24 1018.20 1018.32 1018.52 1018.52 1018.48 1018.56 1018.64 1018.60 1018.96 1019.28 1019.48 1019.24 1018.96 1018.92 1018.80 1018.48 1018.16 1017.88 1018.20 1018.84 1019.12 1019.20 1019.24 1019.20 1019.32 1019.16 1019.08
1017.24 1017.36 1017.48 1017.60 1017.68 1017.72 1017.68 1017.80 1017.80 1017.76 1017.56 1017.52 1017.72 1017.80 1017.92 1017.96 1018.12 1018.40 1018.56 1018.60 1018.72 1018.84 1018.84 1019.24 1019.48 1019.48 1019.40 1019.08 1018.76 1018.64 1018.40 1018.08 1018.12 1018.48 1018.92 1019.20 1019.40 1019.52 1019.40 1019.52 1019.72 1019.76
1017.16 1017.52 1017.60 1017.64 1017.72 1017.68 1017.60 1017.60 1017.52 1017.60 1017.68 1017.72 1017.80 1017.88 1017.92 1017.88 1018.04 1018.32 1018.68 1018.96 1019.04 1019.20 1019.32 1019.48 1019.68 1019.76 1019.76 1019.56 1019.08 1018.60 1018.36 1018.20 1018.28 1018.60 1019.16 1019.36 1019.36 1019.56 1019.72 1019.64 1019.84 1020.04
Thickness
5792 5790 5788 5787 5788 5788 5787 5788 5789 5789 5789 5789 5789 5790 5793 5795 5797 5798 5797 5797 5795 5793 5793 5792 5792 5792 5792 5792 5792 5791 5791 5792 5792 5793 5794 5793 5793 5793 5793 5794 5796 5795
5793 5793 5791 5789 5788 5787 5787 5789 5790 5790 5789 5789 5791 5792 5795 5796 5797 5798 5798 5798 5797 5796 5795 5794 5793 5794 5793 5793 5792 5792 5791 5791 5793 5794 5793 5793 5794 5794 5793 5794 5795 5796
5794 5794 5793 5790 5789 5789 5790 5792 5791 5790 5789 5790 5792 5793 5795 5797 5798 5798 5798 5798 5798 5797 5797 5796 5795 5795 5794 5794 5793 5792 5792 5791 5792 5794 5793 5792 5795 5795 5795 5796 5796 5796
5795 5794 5793 5791 5791 5791 5791 5790 5789 5789 5790 5791 5793 5794 5796 5797 5797 5798 5799 5798 5798 5798 5797 5797 5797 5797 5796 5795 5793 5793 5794 5793 5793 5795 5792 5791 5795 5795 5795 5796 5796 5796
5796 5795 5793 5791 5792 5792 5790 5789 5788 5790 5792 5793 5794 5795 5796 5797 5797 5798 5798 5798 5798 5797 5797 5796 5797 5798 5797 5796 5795 5794 5794 5794 5795 5796 5793 5792 5794 5795 5796 5797 5796 5795
5797 5797 5796 5794 5794 5792 5791 5790 5791 5792 5793 5794 5795 5796 5797 5797 5797 5798 5797 5797 5797 5796 5796 5796 5796 5797 5797 5797 5796 5795 5795 5795 5795 5795 5793 5792 5794 5795 5797 5797 5795 5794
5797 5798 5798 5797 5796 5793 5792 5792 5793 5794 5795 5796 5797 5797 5799 5798 5797 5798 5798 5798 5797 5797 5797 5796 5795 5796 5796 5796 5795 5794 5795 5794 5795 5794 5792 5793 5793 5794 5796 5797 5795 5794
5799 5799 5798 5798 5798 5795 5794 5794 5794 5796 5797 5797 5797 5798 5800 5799 5798 5799 5798 5798 5797 5797 5797 5796 5795 5796 5796 5796 5794 5793 5793 5794 5795 5793 5792 5792 5792 5792 5794 5796 5795 5794
5799 5800 5799 5798 5798 5797 5797 5798 5797 5798 5798 5798 5797 5798 5800 5798 5799 5799 5798 5798 5797 5796 5796 5795 5795 5796 5797 5796 5794 5792 5792 5794 5795 5794 5792 5793 5792 5792 5794 5795 5794 5793
5799 5800 5798 5797 5797 5798 5799 5800 5800 5800 5800 5799 5799 5799 5798 5798 5799 5799 5797 5798 5797 5796 5796 5796 5795 5795 5796 5796 5795 5793 5792 5793 5794 5794 5794 5794 5793 5794 5795 5795 5794 5794
5799 5799 5798 5797 5797 5798 5800 5801 5801 5802 5801 5801 5800 5799 5797 5797 5798 5799 5797 5797 5796 5796 5796 5796 5796 5796 5796 5796 5796 5795 5794 5794 5794 5794 5795 5795 5795 5795 5796 5796 5796 5795
5797 5798 5798 5798 5798 5799 5800 5800 5801 5802 5802 5802 5802 5800 5798 5797 5798 5798 5797 5796 5796 5796 5795 5795 5796 5797 5796 5796 5797 5797 5796 5795 5795 5795 5795 5796 5796 5797 5797 5797 5797 5797
5793 5795 5796 5797 5798 5798 5799 5800 5800 5801 5801 5802 5802 5800 5799 5798 5797 5796 5796 5797 5796 5796 5796 5796 5795 5795 5795 5796 5796 5797 5797 5796 5796 5796 5796 5797 5797 5798 5799 5799 5799 5798
5790 5791 5792 5794 5795 5796 5796 5796 5798 5799 5800 5800 5801 5800 5799 5799 5797 5796 5796 5796 5796 5796 5796 5795 5794 5793 5794 5794 5794 5795 5796 5795 5796 5795 5795 5796 5797 5799 5800 5800 5800 5800
5786 5784 5784 5788 5790 5792 5791 5792 5793 5795 5796 5798 5798 5798 5798 5800 5800 5799 5797 5795 5794 5794 5795 5793 5791 5791 5792 5792 5792 5793 5793 5794 5795 5795 5794 5795 5796 5797 5798 5799 5800 5800
5782 5780 5779 5782 5784 5785 5786 5786 5787 5788 5790 5791 5793 5795 5796 5797 5797 5798 5797 5795 5792 5790 5791 5791 5790 5790 5791 5792 5792 5793 5792 5793 5793 5793 5793 5793 5794 5794 5794 5796 5798 5798
5779 5778 5778 5779 5778 5778 5780 5781 5781 5781 5781 5780 5784 5789 5792 5793 5794 5794 5795 5796 5794 5789 5788 5787 5786 5786 5788 5789 5791 5792 5792 5792 5791 5791 5792 5792 5791 5791 5791 5793 5795 5796
5775 5776 5776 5776 5774 5773 5774 5775 5777 5778 5777 5774 5774 5777 5781 5785 5789 5788 5788 5791 5792 5789 5786 5784 5781 5782 5784 5786 5787 5789 5790 5791 5790 5789 5789 5789 5789 5789 5789 5790 5791 5792
5771 5773 5772 5771 5770 5771 5773 5773 5773 5773 5774 5774 5773 5771 5770 5774 5779 5780 5779 5781 5782 5780 5780 5781 5779 5777 5780 5782 5784 5785 5786 5788 5790 5789 5787 5786 5786 5787 5788 5788 5786 5785
5767 5768 5767 5767 5767 5768 5771 5771 5770 5769 5769 5770 5771 5769 5767 5768 5771 5771 5772 5773 5773 5771 5772 5775 5774 5772 5775 5778 5779 5780 5781 5784 5787 5787 5787 5786 5785 5784 5782 5780 5778 5777
5763 5763 5763 5763 5764 5765 5766 5767 5767 5765 5764 5766 5767 5766 5764 5765 5765 5765 5767 5768 5768 5768 5769 5768 5767 5767 5770 5773 5774 5775 5777 5779 5782 5783 5783 5784 5782 5780 5778 5776 5775 5776
5759 5760 5760 5760 5760 5761 5761 5761 5761 5760 5761 5762 5763 5763 5762 5761 5760 5760 5760 5763 5765 5766 5765 5763 5762 5764 5766 5767 5767 5768 5771 5774 5776 5777 5778 5777 5776 5775 5775 5775 5775 5774
5755 5755 5756 5756 5756 5756 5754 5755 5756 5757 5757 5758 5757 5757 5757 5757 5757 5757 5756 5758 5760 5760 5760 5757 5757 5758 5760 5761 5761 5762 5765 5768 5770 5771 5771 5769 5770 5771 5770 5768 5769 5770
5751 5751 5752 5752 5752 5752 5751 5751 5752 5753 5754 5755 5753 5752 5753 5754 5755 5754 5753 5754 5755 5754 5755 5754 5752 5752 5754 5756 5757 5758 5761 5764 5765 5764 5763 5762 5763 5764 5763 5763 5763 5764
5747 5747 5746 5747 5748 5747 5748 5749 5749 5750 5752 5752 5750 5750 5750 5751 5752 5750 5749 5749 5748 5748 5749 5748 5746 5746 5748 5750 5752 5754 5756 5759 5760 5758 5756 5754 5755 5756 5757 5757 5757 5756
5744 5742 5742 5743 5744 5745 5746 5747 5748 5749 5749 5748 5748 5747 5747 5748 5749 5747 5745 5743 5742 5741 5741 5740 5739 5740 5740 5742 5745 5749 5751 5753 5753 5752 5750 5748 5748 5749 5749 5750 5751 5752